Location: NJAA Observatory
(40.6819°N, 74.8979°W)
Time: 01:36:39
(UTC-04:00)

Vanguard 1 - All Passes

Search period start: 29 June 2017 00:00
Search period end: 09 July 2017 00:00
Orbit: 654 x 3830 km, 34.2° (Epoch: 28 June)

Date Brightness Start Highest point End Pass type
(mag) Time Alt. Az. Time Alt. Az. Time Alt. Az.
29 Jun - 03:42:57 10° SSE 03:51:01 13° SE 03:57:57 10° ESE visible
29 Jun - 05:58:20 10° SSW 06:14:33 35° SSE 06:24:44 10° E daylight
29 Jun - 08:22:29 10° WSW 08:37:10 54° S 08:45:07 10° E daylight
29 Jun - 10:48:14 10° W 10:58:17 52° SSW 11:04:01 10° ESE daylight
29 Jun - 13:13:03 10° W 13:17:37 20° SW 13:21:11 10° SSE daylight
30 Jun - 03:59:29 10° S 04:12:19 20° SE 04:22:20 10° ESE visible
30 Jun - 06:18:40 10° SW 06:35:51 42° SSE 06:46:09 10° E daylight
30 Jun - 08:43:54 10° WSW 08:58:21 59° S 09:06:05 10° E daylight
30 Jun - 11:09:47 10° W 11:19:13 47° SSW 11:24:46 10° SE daylight
30 Jun - 13:35:26 10° WSW 13:38:12 13° SW 13:40:36 10° S daylight
01 Jul - 04:17:52 10° SSW 04:33:36 26° SSE 04:45:05 10° E visible
01 Jul - 06:39:24 10° SW 06:57:10 49° SSE 07:07:23 10° E daylight
01 Jul - 09:05:26 10° WSW 09:19:32 61° S 09:27:01 10° ESE daylight
01 Jul - 11:31:23 10° W 11:40:05 39° SSW 11:45:23 10° SE daylight
02 Jul - 02:27:57 10° SE 02:31:07 10° SE 02:34:09 10° SE visible
02 Jul - 04:37:11 10° SSW 04:54:54 33° SSE 05:07:08 10° E visible
02 Jul - 07:00:27 10° SW 07:18:28 55° SSE 07:28:31 10° E daylight
02 Jul - 09:27:03 10° W 09:40:40 61° S 09:47:56 10° ESE daylight
02 Jul - 11:53:04 10° W 12:00:49 31° SSW 12:05:49 10° SSE daylight
03 Jul - 02:40:44 10° S 02:52:18 16° SE 03:02:16 10° ESE visible
03 Jul - 04:57:07 10° SSW 05:16:13 40° SSE 05:28:46 10° E visible
03 Jul - 07:21:46 10° WSW 07:39:45 60° S 07:49:34 10° E daylight
03 Jul - 09:48:43 10° W 10:01:45 57° SSW 10:08:45 10° ESE daylight
03 Jul - 12:14:55 10° W 12:21:26 24° SW 12:25:57 10° SSE daylight
04 Jul - 02:58:05 10° S 03:13:29 23° SE 03:26:00 10° E visible
04 Jul - 05:17:32 10° SW 05:37:32 47° SSE 05:50:10 10° E daylight
04 Jul - 07:43:17 10° WSW 08:01:02 64° S 08:10:35 10° E daylight
04 Jul - 10:10:24 10° W 10:22:44 52° SSW 10:29:30 10° SE daylight
04 Jul - 12:37:10 10° W 12:41:55 17° SW 12:45:35 10° S daylight
05 Jul - 03:16:47 10° SSW 03:34:39 30° SE 03:48:35 10° E visible
05 Jul - 05:38:20 10° SW 05:58:53 54° SSE 06:11:25 10° E daylight
05 Jul - 08:04:55 10° WSW 08:22:18 65° S 08:31:32 10° ESE daylight
05 Jul - 10:32:07 10° W 10:43:36 44° SSW 10:50:07 10° SE daylight
05 Jul - 13:01:10 10° WSW 13:02:18 10° SW 13:03:23 10° SW daylight
06 Jul - 01:24:44 10° SSE 01:32:07 12° SE 01:39:09 10° ESE visible
06 Jul - 03:36:15 10° SSW 03:55:52 37° SSE 04:10:34 10° E visible
06 Jul - 05:59:26 10° WSW 06:20:15 59° SSE 06:32:35 10° E daylight
06 Jul - 08:26:39 10° W 08:43:31 65° S 08:52:28 10° ESE daylight
06 Jul - 10:53:54 10° W 11:04:21 36° SSW 11:10:34 10° SSE daylight
07 Jul - 01:39:49 10° S 01:53:06 19° SE 02:05:13 10° E visible
07 Jul - 03:56:16 10° SSW 04:17:08 44° SSE 04:32:13 10° E visible
07 Jul - 06:20:47 10° WSW 06:41:38 64° S 06:53:40 10° E daylight
07 Jul - 08:48:25 10° W 09:04:40 62° SSW 09:13:19 10° ESE daylight
07 Jul - 11:15:50 10° W 11:24:56 28° SW 11:30:44 10° SSE daylight
08 Jul - 01:57:34 10° S 02:14:05 25° SE 02:28:45 10° E visible
08 Jul - 04:16:43 10° SW 04:38:27 51° SSE 04:53:39 10° E visible
08 Jul - 06:42:20 10° WSW 07:03:00 67° S 07:14:44 10° E daylight
08 Jul - 09:10:12 10° W 09:25:43 56° SSW 09:34:05 10° SE daylight
08 Jul - 11:38:05 10° W 11:45:24 21° SW 11:50:29 10° S daylight
